Wetterdaten: Woche 18.12.06 - 24.12.06 (KW51)
Datum Zeit Temperatur Luftfeuchte Luftdruck Niederschlag Windrichtung Wind
18.12.2006 00:00 -0,5 C 96 % 1027 hPa 0,0 l/m N 0,0 km/h (0 Bft)
18.12.2006 01:00 -1,3 C 98 % 1027 hPa 0,0 l/m N 0,0 km/h (0 Bft)
18.12.2006 02:00 -1,9 C 98 % 1027 hPa 0,0 l/m N 0,0 km/h (0 Bft)
18.12.2006 03:00 -2,2 C 98 % 1027 hPa 0,0 l/m N 0,0 km/h (0 Bft)
18.12.2006 04:00 -2,6 C 98 % 1027 hPa 0,0 l/m N 0,0 km/h (0 Bft)
18.12.2006 05:00 -2,2 C 98 % 1027 hPa 0,0 l/m N 0,0 km/h (0 Bft)
18.12.2006 06:00 -1,7 C 98 % 1027 hPa 0,0 l/m N 0,0 km/h (0 Bft)
18.12.2006 07:00 -1,4 C 98 % 1027 hPa 0,0 l/m N 0,0 km/h (0 Bft)
18.12.2006 08:00 -1,2 C 98 % 1027 hPa 0,0 l/m N 0,0 km/h (0 Bft)
18.12.2006 09:00 -0,5 C 98 % 1027 hPa 0,0 l/m N 0,0 km/h (0 Bft)
18.12.2006 10:00 0,5 C 98 % 1027 hPa 0,0 l/m N 0,0 km/h (0 Bft)
18.12.2006 11:00 1,2 C 96 % 1027 hPa 0,0 l/m N 3,0 km/h (1 Bft)
18.12.2006 12:00 1,5 C 89 % 1027 hPa 0,0 l/m N-NW 10,6 km/h (2 Bft)
18.12.2006 13:00 1,6 C 82 % 1026 hPa 0,0 l/m N-NW 10,9 km/h (2 Bft)
18.12.2006 14:00 1,7 C 77 % 1026 hPa 0,0 l/m N-NW 10,6 km/h (2 Bft)
18.12.2006 15:00 1,5 C 82 % 1026 hPa 0,0 l/m N 10,5 km/h (2 Bft)
18.12.2006 16:00 1,0 C 82 % 1026 hPa 0,0 l/m N 9,4 km/h (2 Bft)
18.12.2006 17:00 0,6 C 86 % 1026 hPa 0,0 l/m N-NW 6,4 km/h (2 Bft)
18.12.2006 18:00 0,3 C 88 % 1026 hPa 0,0 l/m N-NW 8,1 km/h (2 Bft)
18.12.2006 19:00 -0,1 C 91 % 1026 hPa 0,0 l/m N-NW 10,5 km/h (2 Bft)
18.12.2006 20:00 -0,4 C 91 % 1027 hPa 0,0 l/m N-NW 10,4 km/h (2 Bft)
18.12.2006 21:00 -0,1 C 86 % 1027 hPa 0,0 l/m N-NW 12,7 km/h (3 Bft)
18.12.2006 22:00 -0,3 C 80 % 1027 hPa 0,0 l/m N-NW 11,9 km/h (2 Bft)
18.12.2006 23:00 -0,7 C 75 % 1027 hPa 0,0 l/m N-NW 9,1 km/h (2 Bft)
19.12.2006 00:00 -0,5 C 75 % 1027 hPa 0,0 l/m N-NW 9,7 km/h (2 Bft)
19.12.2006 01:00 -0,1 C 74 % 1027 hPa 0,0 l/m N-NW 10,3 km/h (2 Bft)
19.12.2006 02:00 0,2 C 72 % 1027 hPa 0,0 l/m N-NW 10,3 km/h (2 Bft)
19.12.2006 03:00 0,4 C 71 % 1027 hPa 0,0 l/m N-NW 13,7 km/h (3 Bft)
19.12.2006 04:00 0,3 C 74 % 1027 hPa 0,0 l/m N 14,0 km/h (3 Bft)
19.12.2006 05:00 0,2 C 76 % 1028 hPa 0,0 l/m N-NW 13,6 km/h (3 Bft)
19.12.2006 06:00 0,1 C 77 % 1028 hPa 0,0 l/m N 13,7 km/h (3 Bft)
19.12.2006 07:00 0,1 C 78 % 1029 hPa 0,0 l/m N 13,6 km/h (3 Bft)
19.12.2006 08:00 -0,0 C 75 % 1029 hPa 0,0 l/m N 13,4 km/h (3 Bft)
19.12.2006 09:00 0,0 C 71 % 1030 hPa 0,0 l/m N-NW 14,2 km/h (3 Bft)
19.12.2006 10:00 0,4 C 67 % 1030 hPa 0,0 l/m N 15,6 km/h (3 Bft)
19.12.2006 11:00 0,7 C 63 % 1030 hPa 0,0 l/m N 17,3 km/h (3 Bft)
19.12.2006 12:00 0,9 C 59 % 1030 hPa 0,0 l/m N-NW 18,4 km/h (3 Bft)
19.12.2006 13:00 1,0 C 56 % 1030 hPa 0,0 l/m N 15,3 km/h (3 Bft)
19.12.2006 14:00 0,9 C 55 % 1030 hPa 0,0 l/m N 13,6 km/h (3 Bft)
19.12.2006 15:00 0,6 C 51 % 1031 hPa 0,0 l/m N 15,8 km/h (3 Bft)
19.12.2006 16:00 0,3 C 51 % 1031 hPa 0,0 l/m N 16,0 km/h (3 Bft)
19.12.2006 17:00 0,1 C 50 % 1031 hPa 0,0 l/m N 16,1 km/h (3 Bft)
19.12.2006 18:00 0,0 C 50 % 1031 hPa 0,0 l/m N 17,3 km/h (3 Bft)
19.12.2006 19:00 -0,2 C 50 % 1032 hPa 0,0 l/m N 17,2 km/h (3 Bft)
19.12.2006 20:00 -0,7 C 51 % 1032 hPa 0,0 l/m N-NW 15,5 km/h (3 Bft)
19.12.2006 21:00 -1,0 C 52 % 1032 hPa 0,0 l/m N-NW 14,6 km/h (3 Bft)
19.12.2006 22:00 -1,2 C 53 % 1032 hPa 0,0 l/m N 16,2 km/h (3 Bft)
19.12.2006 23:00 -1,6 C 58 % 1032 hPa 0,0 l/m NW 12,2 km/h (2 Bft)
20.12.2006 00:00 -1,9 C 67 % 1032 hPa 0,0 l/m N-NW 10,9 km/h (2 Bft)
20.12.2006 01:00 -2,2 C 67 % 1032 hPa 0,0 l/m N-NW 9,8 km/h (2 Bft)
20.12.2006 02:00 -2,6 C 71 % 1032 hPa 0,0 l/m NW 9,2 km/h (2 Bft)
20.12.2006 03:00 -2,9 C 76 % 1032 hPa 0,0 l/m W-NW 8,2 km/h (2 Bft)
20.12.2006 04:00 -2,8 C 76 % 1032 hPa 0,0 l/m N-NW 9,3 km/h (2 Bft)
20.12.2006 05:00 -3,0 C 79 % 1032 hPa 0,0 l/m NW 9,7 km/h (2 Bft)
20.12.2006 06:00 -2,8 C 79 % 1033 hPa 0,0 l/m NW 10,5 km/h (2 Bft)
20.12.2006 07:00 -3,1 C 78 % 1033 hPa 0,0 l/m NW 9,2 km/h (2 Bft)
20.12.2006 08:00 -3,2 C 80 % 1033 hPa 0,0 l/m NW 10,2 km/h (2 Bft)
20.12.2006 09:00 -2,1 C 74 % 1034 hPa 0,0 l/m NW 11,6 km/h (2 Bft)
20.12.2006 10:00 -0,8 C 65 % 1034 hPa 0,0 l/m N 12,0 km/h (2 Bft)
20.12.2006 11:00 0,5 C 57 % 1034 hPa 0,0 l/m N 14,8 km/h (3 Bft)
20.12.2006 12:00 1,4 C 53 % 1034 hPa 0,0 l/m N 17,4 km/h (3 Bft)
20.12.2006 13:00 2,0 C 52 % 1034 hPa 0,0 l/m N-NO 16,4 km/h (3 Bft)
20.12.2006 14:00 2,1 C 53 % 1033 hPa 0,0 l/m N 14,0 km/h (3 Bft)
20.12.2006 15:00 1,4 C 56 % 1034 hPa 0,0 l/m N 12,1 km/h (2 Bft)
20.12.2006 16:00 0,8 C 61 % 1034 hPa 0,0 l/m N 6,3 km/h (2 Bft)
20.12.2006 17:00 -0,0 C 66 % 1035 hPa 0,0 l/m N-NW 6,9 km/h (2 Bft)
20.12.2006 18:00 -1,0 C 70 % 1035 hPa 0,0 l/m N-NW 4,6 km/h (1 Bft)
20.12.2006 19:00 -2,0 C 73 % 1035 hPa 0,0 l/m W-NW 3,6 km/h (1 Bft)
20.12.2006 20:00 -2,5 C 77 % 1035 hPa 0,0 l/m W-NW 4,6 km/h (1 Bft)
20.12.2006 21:00 -3,0 C 79 % 1035 hPa 0,0 l/m W 2,0 km/h (1 Bft)
20.12.2006 22:00 -3,3 C 82 % 1035 hPa 0,0 l/m W 1,8 km/h (1 Bft)
20.12.2006 23:00 -3,6 C 84 % 1035 hPa 0,0 l/m W 3,0 km/h (1 Bft)
21.12.2006 00:00 -3,7 C 86 % 1035 hPa 0,0 l/m W 6,4 km/h (2 Bft)
21.12.2006 01:00 -3,7 C 87 % 1035 hPa 0,0 l/m W 6,3 km/h (2 Bft)
21.12.2006 02:00 -3,9 C 88 % 1035 hPa 0,0 l/m NW 2,5 km/h (1 Bft)
21.12.2006 03:00 -4,2 C 90 % 1035 hPa 0,0 l/m NW 5,9 km/h (2 Bft)
21.12.2006 04:00 -3,7 C 93 % 1035 hPa 0,0 l/m W-NW 7,8 km/h (2 Bft)
21.12.2006 05:00 -3,3 C 93 % 1035 hPa 0,0 l/m W-NW 6,7 km/h (2 Bft)
21.12.2006 06:00 -2,4 C 93 % 1036 hPa 0,0 l/m W-NW 7,4 km/h (2 Bft)
21.12.2006 07:00 -1,8 C 89 % 1036 hPa 0,0 l/m NW 6,0 km/h (2 Bft)
21.12.2006 08:00 -1,8 C 90 % 1036 hPa 0,0 l/m NW 8,0 km/h (2 Bft)
21.12.2006 09:00 -1,4 C 92 % 1036 hPa 0,0 l/m N-NW 6,1 km/h (2 Bft)
21.12.2006 10:00 -0,2 C 91 % 1036 hPa 0,0 l/m N-NW 9,6 km/h (2 Bft)
21.12.2006 11:00 0,6 C 89 % 1036 hPa 0,0 l/m N-NW 10,1 km/h (2 Bft)
21.12.2006 12:00 0,8 C 90 % 1036 hPa 0,0 l/m N-NW 10,8 km/h (2 Bft)
21.12.2006 13:00 1,1 C 89 % 1036 hPa 0,0 l/m N-NW 10,6 km/h (2 Bft)
21.12.2006 14:00 1,4 C 84 % 1036 hPa 0,0 l/m NW 11,7 km/h (2 Bft)
21.12.2006 15:00 1,5 C 85 % 1036 hPa 0,0 l/m W-NW 11,8 km/h (2 Bft)
21.12.2006 16:00 1,1 C 87 % 1036 hPa 0,0 l/m N-NW 13,2 km/h (3 Bft)
21.12.2006 17:00 0,9 C 91 % 1036 hPa 0,0 l/m N-NW 13,5 km/h (3 Bft)
21.12.2006 18:00 0,7 C 95 % 1037 hPa 0,0 l/m N-NW 11,9 km/h (2 Bft)
21.12.2006 19:00 0,5 C 95 % 1037 hPa 0,0 l/m N-NW 12,2 km/h (2 Bft)
21.12.2006 20:00 0,8 C 93 % 1037 hPa 0,0 l/m N-NO 13,2 km/h (3 Bft)
21.12.2006 21:00 1,1 C 86 % 1037 hPa 0,0 l/m NO 14,1 km/h (3 Bft)
21.12.2006 22:00 0,6 C 88 % 1037 hPa 0,0 l/m N-NO 13,1 km/h (3 Bft)
21.12.2006 23:00 0,3 C 91 % 1037 hPa 0,0 l/m N 13,1 km/h (3 Bft)
22.12.2006 00:00 -0,2 C 92 % 1037 hPa 0,0 l/m N-NO 11,3 km/h (2 Bft)
22.12.2006 01:00 -0,8 C 94 % 1036 hPa 0,0 l/m N 10,7 km/h (2 Bft)
22.12.2006 02:00 -0,6 C 92 % 1036 hPa 0,0 l/m N-NO 10,2 km/h (2 Bft)
22.12.2006 03:00 -0,1 C 89 % 1036 hPa 0,0 l/m N-NO 11,7 km/h (2 Bft)
22.12.2006 04:00 -0,1 C 87 % 1036 hPa 0,0 l/m N-NO 14,1 km/h (3 Bft)
22.12.2006 05:00 -0,4 C 87 % 1036 hPa 0,0 l/m N-NO 12,8 km/h (3 Bft)
22.12.2006 06:00 -0,5 C 87 % 1036 hPa 0,0 l/m N-NO 13,0 km/h (3 Bft)
22.12.2006 07:00 -0,4 C 84 % 1036 hPa 0,0 l/m N-NO 15,5 km/h (3 Bft)
22.12.2006 08:00 -0,5 C 82 % 1036 hPa 0,0 l/m N-NO 15,1 km/h (3 Bft)
22.12.2006 09:00 -0,3 C 83 % 1037 hPa 0,0 l/m N 15,7 km/h (3 Bft)
22.12.2006 10:00 0,1 C 81 % 1038 hPa 0,0 l/m N-NO 14,1 km/h (3 Bft)
22.12.2006 11:00 0,9 C 75 % 1037 hPa 0,0 l/m N-NO 15,0 km/h (3 Bft)
22.12.2006 12:00 1,7 C 70 % 1037 hPa 0,0 l/m N-NO 14,0 km/h (3 Bft)
22.12.2006 13:00 2,6 C 61 % 1037 hPa 0,0 l/m N-NO 17,3 km/h (3 Bft)
22.12.2006 14:00 2,9 C 59 % 1036 hPa 0,0 l/m N-NO 14,6 km/h (3 Bft)
22.12.2006 15:00 2,4 C 61 % 1037 hPa 0,0 l/m N-NO 13,8 km/h (3 Bft)
22.12.2006 16:00 1,5 C 67 % 1037 hPa 0,0 l/m N-NO 11,3 km/h (2 Bft)
22.12.2006 17:00 0,8 C 71 % 1037 hPa 0,0 l/m N-NO 13,5 km/h (3 Bft)
22.12.2006 18:00 0,4 C 75 % 1037 hPa 0,0 l/m N-NO 13,6 km/h (3 Bft)
22.12.2006 19:00 0,0 C 78 % 1037 hPa 0,0 l/m N-NO 13,4 km/h (3 Bft)
22.12.2006 20:00 -0,3 C 80 % 1037 hPa 0,0 l/m N 12,9 km/h (3 Bft)
22.12.2006 21:00 -0,6 C 82 % 1037 hPa 0,0 l/m N 11,1 km/h (2 Bft)
22.12.2006 22:00 -1,0 C 86 % 1037 hPa 0,0 l/m N 10,1 km/h (2 Bft)
22.12.2006 23:00 -1,2 C 88 % 1037 hPa 0,0 l/m N 9,8 km/h (2 Bft)
23.12.2006 00:00 -1,3 C 91 % 1037 hPa 0,0 l/m N 9,2 km/h (2 Bft)
23.12.2006 01:00 -1,0 C 91 % 1037 hPa 0,0 l/m N-NO 6,2 km/h (2 Bft)
23.12.2006 02:00 -1,1 C 90 % 1037 hPa 0,0 l/m N 6,2 km/h (2 Bft)
23.12.2006 03:00 -1,4 C 91 % 1036 hPa 0,0 l/m N 7,0 km/h (2 Bft)
23.12.2006 04:00 -1,4 C 93 % 1036 hPa 0,0 l/m N 8,3 km/h (2 Bft)
23.12.2006 05:00 -1,3 C 93 % 1036 hPa 0,0 l/m N-NO 10,7 km/h (2 Bft)
23.12.2006 06:00 -1,2 C 90 % 1037 hPa 0,0 l/m N-NO 10,6 km/h (2 Bft)
23.12.2006 07:00 -1,2 C 88 % 1037 hPa 0,0 l/m NO 11,8 km/h (2 Bft)
23.12.2006 08:00 -1,3 C 89 % 1037 hPa 0,0 l/m N-NO 10,2 km/h (2 Bft)
23.12.2006 09:00 -1,1 C 88 % 1037 hPa 0,0 l/m N-NO 11,2 km/h (2 Bft)
23.12.2006 10:00 -0,8 C 86 % 1037 hPa 0,0 l/m N 11,6 km/h (2 Bft)
23.12.2006 11:00 0,1 C 82 % 1037 hPa 0,0 l/m N 12,3 km/h (3 Bft)
23.12.2006 12:00 1,1 C 75 % 1037 hPa 0,0 l/m NO 10,6 km/h (2 Bft)
23.12.2006 13:00 2,3 C 70 % 1036 hPa 0,0 l/m N-NO 9,9 km/h (2 Bft)
23.12.2006 14:00 1,8 C 74 % 1036 hPa 0,0 l/m N-NO 11,1 km/h (2 Bft)
23.12.2006 15:00 0,8 C 81 % 1036 hPa 0,0 l/m N 11,4 km/h (2 Bft)
23.12.2006 16:00 0,2 C 87 % 1036 hPa 0,0 l/m N-NO 9,1 km/h (2 Bft)
23.12.2006 17:00 -0,0 C 88 % 1036 hPa 0,0 l/m N-NO 10,9 km/h (2 Bft)
23.12.2006 18:00 0,1 C 90 % 1036 hPa 0,0 l/m N-NO 9,9 km/h (2 Bft)
23.12.2006 19:00 0,1 C 92 % 1036 hPa 0,0 l/m N-NO 9,6 km/h (2 Bft)
23.12.2006 20:00 -0,1 C 96 % 1035 hPa 0,0 l/m O-NO 11,0 km/h (2 Bft)
23.12.2006 21:00 -0,4 C 97 % 1035 hPa 0,0 l/m NO 12,5 km/h (3 Bft)
23.12.2006 22:00 -0,4 C 97 % 1035 hPa 0,0 l/m NO 11,2 km/h (2 Bft)
23.12.2006 23:00 -0,6 C 98 % 1035 hPa 0,0 l/m N-NO 12,7 km/h (3 Bft)
24.12.2006 00:00 -0,7 C 98 % 1035 hPa 0,0 l/m NO 8,7 km/h (2 Bft)
24.12.2006 01:00 -0,9 C 98 % 1035 hPa 0,0 l/m NO 11,0 km/h (2 Bft)
24.12.2006 02:00 -1,3 C 98 % 1034 hPa 0,0 l/m NO 10,3 km/h (2 Bft)
24.12.2006 03:00 -1,5 C 98 % 1034 hPa 0,0 l/m N 10,1 km/h (2 Bft)
24.12.2006 04:00 -1,8 C 98 % 1034 hPa 0,0 l/m N-NO 9,7 km/h (2 Bft)
24.12.2006 05:00 -1,8 C 98 % 1034 hPa 0,0 l/m N 9,7 km/h (2 Bft)
24.12.2006 06:00 -1,7 C 98 % 1034 hPa 0,0 l/m N-NO 9,6 km/h (2 Bft)
24.12.2006 07:00 -1,7 C 98 % 1034 hPa 0,0 l/m O-NO 8,0 km/h (2 Bft)
24.12.2006 08:00 -1,8 C 98 % 1034 hPa 0,0 l/m O-NO 8,1 km/h (2 Bft)
24.12.2006 09:00 -1,9 C 98 % 1035 hPa 0,0 l/m O 7,7 km/h (2 Bft)
24.12.2006 10:00 -1,8 C 98 % 1035 hPa 0,0 l/m O-NO 4,8 km/h (1 Bft)
24.12.2006 11:00 -1,7 C 97 % 1035 hPa 0,0 l/m N-NO 3,6 km/h (1 Bft)
24.12.2006 12:00 -1,5 C 95 % 1034 hPa 0,0 l/m O-NO 6,4 km/h (2 Bft)
24.12.2006 13:00 -1,0 C 94 % 1034 hPa 0,0 l/m NO 8,5 km/h (2 Bft)
24.12.2006 14:00 -0,8 C 91 % 1034 hPa 0,0 l/m NO 9,2 km/h (2 Bft)
24.12.2006 15:00 -0,6 C 91 % 1034 hPa 0,0 l/m O-NO 8,5 km/h (2 Bft)
24.12.2006 16:00 -0,7 C 92 % 1034 hPa 0,0 l/m O-NO 8,6 km/h (2 Bft)
24.12.2006 17:00 -0,9 C 93 % 1034 hPa 0,0 l/m N-NO 8,0 km/h (2 Bft)
24.12.2006 18:00 -1,0 C 95 % 1033 hPa 0,0 l/m N-NO 8,1 km/h (2 Bft)
24.12.2006 19:00 -1,0 C 97 % 1033 hPa 0,0 l/m N-NO 5,6 km/h (1 Bft)
24.12.2006 20:00 -1,1 C 98 % 1033 hPa 0,0 l/m N-NO 8,0 km/h (2 Bft)
24.12.2006 21:00 -1,1 C 98 % 1034 hPa 0,0 l/m NO 6,6 km/h (2 Bft)
24.12.2006 22:00 -1,0 C 98 % 1034 hPa 0,0 l/m N-NO 5,6 km/h (1 Bft)
24.12.2006 23:00 -1,0 C 98 % 1034 hPa 0,0 l/m N 6,7 km/h (2 Bft)
Min-Datum _ 21.12.06 19.12.06 18.12.06 - - 18.12.06
_ Min-Zeit 03:00 19:50 12:35 - - 00:00
Minimum _ -4,2 C 48 % 1026 hPa - - 0,0 km/h (0 Bft)
Max-Datum _ 22.12.06 18.12.06 22.12.06 18.12.06 - 19.12.06
_ Max-Zeit 14:14 01:16 10:35 00:00 - 18:12
Maximum _ 3,0 C 98 % 1038 hPa 0,0 l/m - 30,9 km/h
N (5 Bft)
Durchschnitt _ -0,6 C 82 % 1034 hPa #0,0 l/m N 10,0 km/h (2 Bft)

Durchschnitt Minimum Temp.-0,7 C
Durchschnitt Maximum Temp.-0,4 C